Regional Weather Roundup
Issued by NWS

Home | Current Version | Previous Version | Text Only | Print | Product List | Glossary On
Versions: 1 2 3 4 5 6 7 8 9 10 11 12 13 14 15 16 17 18 19 20 21 22 23 24 25 26 27 28 29 30 31 32 33 34 35 36 37 38 39 40 41 42 43 44 45 46 47 48 49 50
000
ASUS43 KMKX 010621
RWRWI

WISCONSIN REGIONAL WEATHER ROUNDUP
NATIONAL WEATHER SERVICE MILWAUKEE/SULLIVAN WI
100 AM CDT WED JUL 01 2015

NOTE: "FAIR" INDICATES FEW OR NO CLOUDS BELOW 12,000 FEET WITH NO
SIGNIFICANT WEATHER AND/OR OBSTRUCTIONS TO VISIBILITY.

WIZ001-002-006>008-014>016-023>028-010700-
NORTHWEST WISCONSIN

CITY           SKY/WX    TMP DP  RH WIND       PRES   REMARKS
SUPERIOR ARPT  CLEAR     52  51  95 CALM      30.00R
6HR MIN TEMP:  52; 6HR MAX TEMP:  58;

ASHLAND        CLEAR     41  41 100 CALM      30.00S FOG
6HR MIN TEMP:  40; 6HR MAX TEMP:  57;

HAYWARD        PTCLDY    48  45  89 CALM      29.99
6HR MIN TEMP:  48; 6HR MAX TEMP:  63;

SIREN          PTCLDY    53  50  90 CALM      29.99R
6HR MIN TEMP:  53; 6HR MAX TEMP:  68;

CUMBERLAND     PTCLDY    54  50  87 CALM      29.99R
RICE LAKE      PTCLDY    53  49  84 CALM      30.01R
6HR MIN TEMP:  53; 6HR MAX TEMP:  67;

CHETEK         PTCLDY    56  50  81 CALM      29.99S
6HR MIN TEMP:  56; 6HR MAX TEMP:  67;

LADYSMITH      PTCLDY    50  46  88 NE3       30.01R
6HR MIN TEMP:  50; 6HR MAX TEMP:  64;

EAU CLAIRE     CLEAR     54  48  80 NE6       29.96S
6HR MIN TEMP:  54; 6HR MAX TEMP:  70;

MENOMONIE      CLEAR     56  51  84 N3        29.98S
6HR MIN TEMP:  56; 6HR MAX TEMP:  72;

NEW RICHMOND   PTCLDY    56  50  79 CALM      29.99R
6HR MIN TEMP:  56; 6HR MAX TEMP:  69;

OSCEOLA        PTCLDY    59  52  78 CALM      30.01R
6HR MIN TEMP:  58; 6HR MAX TEMP:  71;

$$

WIZ003>005-009-010-017-018-010700-
NORTH CENTRAL WISCONSIN

CITY           SKY/WX    TMP DP  RH WIND       PRES   REMARKS
MANITOWISH WTR CLEAR     41  41 100 CALM      29.99S
6HR MIN TEMP:  40; 6HR MAX TEMP:  58;

ARBOR VITAE    CLEAR     42  40  91 CALM      29.99S
6HR MIN TEMP:  42; 6HR MAX TEMP:  59;

WOODRUFF       CLEAR     42  40  91 CALM      29.99S
6HR MIN TEMP:  42; 6HR MAX TEMP:  59;

RHINELANDER    CLEAR     42  41  96 CALM      29.98F FOG
6HR MIN TEMP:  41; 6HR MAX TEMP:  60;

EAGLE RIVER    PTCLDY    41  41 100 CALM      29.98S FOG
6HR MIN TEMP:  40; 6HR MAX TEMP:  57;

LAND O LAKES   CLEAR     39  39 100 CALM      30.00S
6HR MIN TEMP:  38; 6HR MAX TEMP:  57;

PHILLIPS       PTCLDY    42  40  96 CALM      29.99S
6HR MIN TEMP:  42; 6HR MAX TEMP:  60;

TOMAHAWK       CLEAR     37  36  96 W3        29.99S
6HR MIN TEMP:  37; 6HR MAX TEMP:  61;

MEDFORD        CLEAR     46  44  93 N3        29.98S
6HR MIN TEMP:  45; 6HR MAX TEMP:  64;

MERRILL        CLEAR     44  44 100 CALM      29.98F
6HR MIN TEMP:  43; 6HR MAX TEMP:  63;

$$

WIZ029-030-035-036-043>047-010700-
CENTRAL WISCONSIN

CITY           SKY/WX    TMP DP  RH WIND       PRES   REMARKS
WAUSAU         CLEAR     51  45  79 CALM      29.96
6HR MIN TEMP:  51; 6HR MAX TEMP:  66;

MOSINEE        CLEAR     50  46  87 NE7       29.98F
MARSHFIELD     CLEAR     53  45  74 NE7       29.97
6HR MIN TEMP:  53; 6HR MAX TEMP:  68;

STEVENS POINT  CLEAR     47  45  90 NE3       29.97F
6HR MIN TEMP:  47; 6HR MAX TEMP:  64;

WAUPACA        CLEAR     54  47  79 N3        29.96S
6HR MIN TEMP:  54; 6HR MAX TEMP:  69;

WAUTOMA        CLEAR     56  50  80 NE7       29.97R
6HR MIN TEMP:  56; 6HR MAX TEMP:  70;

WISC RAPIDS    CLEAR     54  45  71 NE7       29.97
6HR MIN TEMP:  54; 6HR MAX TEMP:  68;

CAMP DOUGLAS   CLEAR     52  52 100 NE1       29.95R
6HR MIN TEMP:  51; 6HR MAX TEMP:  67;

$$

WIZ011>013-019>022-031-037>040-048>050-010700-
NORTHEAST WISCONSIN

CITY           SKY/WX    TMP DP  RH WIND       PRES   REMARKS
ANTIGO         CLEAR     44  44  99 CALM      29.97F
SHAWANO        CLEAR     51  46  83 NW6       29.96S
6HR MIN TEMP:  51; 6HR MAX TEMP:  66;

OCONTO         CLOUDY    51  49  93 NW5       29.94R
6HR MIN TEMP:  47; 6HR MAX TEMP:  61;

STURGEON BAY   CLOUDY    54  45  71 N9        29.94F
6HR MIN TEMP:  54; 6HR MAX TEMP:  61;

GREEN BAY      CLEAR     51  48  89 NW7       29.94
6HR MIN TEMP:  51; 6HR MAX TEMP:  66;

MANITOWOC      CLOUDY    56  49  77 MISG      29.93F
6HR MIN TEMP:  55; 6HR MAX TEMP:  60;

APPLETON       CLEAR     50  43  76 N8        29.95F
CLINTONVILLE   CLEAR     50  45  81 N3        29.95F
OSHKOSH        CLEAR     55  47  74 N9        29.94
6HR MIN TEMP:  55; 6HR MAX TEMP:  70;

$$

WIZ032>034-041-042-053>061-010700-
SOUTHWEST WISCONSIN

CITY           SKY/WX    TMP DP  RH WIND       PRES   REMARKS
LA CROSSE      CLEAR     61  52  72 N6        29.94
6HR MIN TEMP:  61; 6HR MAX TEMP:  75;

SPARTA         CLEAR     49  48  97 SW3       29.96R
6HR MIN TEMP:  49; 6HR MAX TEMP:  72;

VIROQUA        CLEAR     56  55  95 NE6       29.95S
6HR MIN TEMP:  56; 6HR MAX TEMP:  70;

BOSCOBEL       CLEAR     55  53  93 CALM      29.93F FOG
6HR MIN TEMP:  55; 6HR MAX TEMP:  75;

PRAIRIE DU CHI CLEAR     59  56  90 CALM      29.92S
6HR MIN TEMP:  59; 6HR MAX TEMP:  73;

PLATTEVILLE    PTCLDY    59  56  88 NE5       29.93S
6HR MIN TEMP:  58; 6HR MAX TEMP:  73;

$$

WIZ056-057-062-063-064-067-068-010700-
SOUTH CENTRAL WISCONSIN

CITY           SKY/WX    TMP DP  RH WIND       PRES   REMARKS
REEDSBURG      CLEAR     56  53  91 NE3       29.93S
6HR MIN TEMP:  55; 6HR MAX TEMP:  70;

BARABOO/DELLS  PTCLDY    58  51  80 NE5       29.93S
6HR MIN TEMP:  58; 6HR MAX TEMP:  71;

LONE ROCK      CLEAR     57  53  86 CALM      29.93S
6HR MIN TEMP:  56; 6HR MAX TEMP:  73;

MINERAL POINT  CLEAR     59  54  82 N5        29.93S
MADISON        MOCLDY    59  54  83 N3        29.92
6HR MIN TEMP:  59; 6HR MAX TEMP:  73;

MIDDLETON      CLOUDY    61  57  89 N3        29.93S
6HR MIN TEMP:  60; 6HR MAX TEMP:  73;

WATERTOWN      CLOUDY    56  56 100 E3        29.93R
6HR MIN TEMP:  56; 6HR MAX TEMP:  71;

MONROE         MOCLDY    59  55  88 N7        29.92S
JANESVILLE     MOCLDY    59  57  94 E3        29.93R
$$

WIZ051-052-058>065-066-070>072-010700-
SOUTHEAST WISCONSIN

CITY           SKY/WX    TMP DP  RH WIND       PRES   REMARKS
MILWAUKEE      CLOUDY    54  49  83 N6        29.94
6HR MIN TEMP:  53; 6HR MAX TEMP:  58;

WAUKESHA       PTCLDY    50  48  93 E3        29.94S
MILWAUKEE/TIMM MOCLDY    52  46  82 CALM      29.95R
RACINE         CLEAR     53  48  83 N7        29.94
6HR MIN TEMP:  53; 6HR MAX TEMP:  60;

BURLINGTON     CLOUDY    53  50  90 CALM      29.93F
6HR MIN TEMP:  52; 6HR MAX TEMP:  64;

KENOSHA        PTCLDY    53  49  86 N3        29.93
6HR MIN TEMP:  53; 6HR MAX TEMP:  62;

FOND DU LAC    CLOUDY    58  50  75 N10       29.94
6HR MIN TEMP:  59; 6HR MAX TEMP:  69;

SHEBOYGAN      CLOUDY    54  52  93 NW3       29.93S
6HR MIN TEMP:  52; 6HR MAX TEMP:  58;

WEST BEND      CLOUDY    52  48  87 CALM      29.93F
JUNEAU         MOCLDY    58  55  91 CALM      29.94S
6HR MIN TEMP:  58; 6HR MAX TEMP:  69;

$$

LSZ147-162-010700-
LAKE SUPERIOR

STATION/POSITION TIME  TEMP    WIND        PRES    WAVE
                       AIR SEA DIR/SP/G            HT/PER
                 (UTC) (F)     (DEG/KT/KT) (MB)    (FT/S)
W MID LAKE BUOY  0550   45 38  330/  2/  4 1016.5S   1/ 5
DEVILS ISLAND    0500   54     100/  8/  8 1016.0F
SAXON HARBOR     0500   45        CALM     1015.6F
$$

LMZ867-665-643>646-010700-
LAKE MICHIGAN

STATION/POSITION TIME  TEMP    WIND        PRES    WAVE
                       AIR SEA DIR/SP/G            HT/PER



USA.gov is the U.S. government's official web portal to all federal, state and local government web resources and services.